Elefsis, Greece

12:00 PM EEST on August 21, 2017 (GMT +0300)
Elefsis Air Base

Weather History for LGEL - August, 2013

Change the Weather History Date:

Friday, August 30, 2013

  Actual Average Record
Temperature  
Mean Temperature 84 °F -  
Max Temperature 91 °F 81 °F 98 °F (2003)
Min Temperature 77 °F 64 °F 66 °F (1999)
Cooling Degree Days 19    
Growing Degree Days 34 (Base 50)    
Moisture  
Dew Point 55 °F    
Average Humidity 36    
Maximum Humidity 54    
Minimum Humidity 26    
Precipitation  
Precipitation 0.00 in - - ()
Sea Level Pressure  
Sea Level Pressure 29.87 in    
Wind  
Wind Speed 8 mph ()    
Max Wind Speed 14 mph    
Max Gust Speed -    
Visibility 6.2 miles    
Events      
Averages and records for this station are not official NWS values.
T = Trace of Precipitation, MM = Missing Value Source: Averaged Metar Reports

Daily Weather History Graph

Daily Weather History Graph

Search for Another Location

Airport or City:

Trip Planner

Search our weather history database for the weather conditions in past years. The results will help you decide how hot, cold, wet, or windy it might be!

Date:

Astronomy

Aug. 30, 2013 Rise Set
Actual Time 6:53 AM EEST 7:58 PM EEST
Civil Twilight 6:26 AM EEST 8:25 PM EEST
Nautical Twilight 5:54 AM EEST 8:57 PM EEST
Astronomical Twilight 5:20 AM EEST 9:30 PM EEST
Moon 1:20 AM EEST (8/30) 3:56 PM EEST (8/30)
Length of Visible Light 13h 58m
Length of Day
13h 04m
Waning Crescent, 32% of the Moon is Illuminated
Aug 30
Waning Crescent
Sep 5
New
Sep 12
First Quarter
Sep 19
Full
Sep 27
Last Quarter

Hourly Weather History & Observations

Time (EEST) Temp. Heat Index Dew Point Humidity Pressure Visibility Wind Dir Wind Speed Gust Speed Precip Events Conditions
12:50 AM 77.0 °F - 59.0 °F 54% 29.89 in - NNW 3.5 mph - N/A   Clear
1:50 AM 77.0 °F - 59.0 °F 54% 29.86 in - Calm Calm - N/A   Clear
2:50 AM 80.6 °F 80.8 °F 57.2 °F 45% 29.86 in - NNW 9.2 mph - N/A   Clear
3:50 AM 82.4 °F 81.4 °F 53.6 °F 37% 29.86 in - NW 11.5 mph - N/A   Clear
4:50 AM 80.6 °F 80.5 °F 55.4 °F 42% 29.86 in - WNW 4.6 mph - N/A   Clear
5:50 AM 80.6 °F 80.5 °F 55.4 °F 42% 29.86 in 6.2 mi West 8.1 mph - N/A   Partly Cloudy
6:20 AM 80.6 °F 80.8 °F 57.2 °F 45% 29.86 in 6.2 mi WNW 8.1 mph - N/A   Partly Cloudy
6:50 AM 80.6 °F 80.5 °F 55.4 °F 42% 29.86 in 6.2 mi NW 8.1 mph - N/A   Partly Cloudy
7:20 AM 80.6 °F 80.8 °F 57.2 °F 45% 29.86 in 6.2 mi NW 8.1 mph - N/A   Partly Cloudy
7:50 AM 80.6 °F 80.8 °F 57.2 °F 45% 29.86 in 6.2 mi NW 11.5 mph - N/A   Partly Cloudy
8:20 AM 82.4 °F 81.7 °F 55.4 °F 39% 29.86 in 6.2 mi NW 11.5 mph - N/A   Partly Cloudy
8:50 AM 84.2 °F 83.0 °F 55.4 °F 37% 29.86 in 6.2 mi NNW 13.8 mph - N/A   Partly Cloudy
9:20 AM 84.2 °F 83.0 °F 55.4 °F 37% 29.86 in 6.2 mi NNW 13.8 mph - N/A   Partly Cloudy
9:50 AM 84.2 °F 82.8 °F 53.6 °F 35% 29.86 in - NNW 13.8 mph - N/A   Clear
10:20 AM 86.0 °F 84.2 °F 53.6 °F 33% 29.86 in - NNW 13.8 mph - N/A   Clear
10:50 AM 87.8 °F 86.1 °F 55.4 °F 33% 29.89 in 6.2 mi NW 13.8 mph - N/A   Partly Cloudy
11:20 AM 87.8 °F 86.1 °F 55.4 °F 33% 29.89 in 6.2 mi NNW 13.8 mph - N/A   Partly Cloudy
11:50 AM 89.6 °F 87.3 °F 53.6 °F 29% 29.86 in 6.2 mi NNW 13.8 mph - N/A   Partly Cloudy
12:20 PM 89.6 °F 87.3 °F 53.6 °F 29% 29.86 in 6.2 mi NNW 13.8 mph - N/A   Partly Cloudy
12:50 PM 91.4 °F 89.1 °F 53.6 °F 28% 29.86 in 6.2 mi North 11.5 mph - N/A   Partly Cloudy
1:20 PM 89.6 °F 87.7 °F 55.4 °F 31% 29.86 in 6.2 mi North 11.5 mph - N/A   Partly Cloudy
1:50 PM 91.4 °F 89.4 °F 55.4 °F 29% 29.86 in 6.2 mi North 11.5 mph - N/A   Partly Cloudy
2:20 PM 91.4 °F 89.4 °F 55.4 °F 29% 29.86 in 6.2 mi North 11.5 mph - N/A   Partly Cloudy
2:50 PM 91.4 °F 89.4 °F 55.4 °F 29% 29.86 in 6.2 mi North 13.8 mph - N/A   Partly Cloudy
3:20 PM 91.4 °F 89.1 °F 53.6 °F 28% 29.86 in 6.2 mi North 13.8 mph - N/A   Partly Cloudy
3:50 PM 91.4 °F 89.1 °F 53.6 °F 28% 29.83 in 6.2 mi North 11.5 mph - N/A   Partly Cloudy
4:20 PM 91.4 °F - 51.8 °F 26% 29.83 in 6.2 mi North 11.5 mph - N/A   Partly Cloudy
4:50 PM 91.4 °F - 51.8 °F 26% 29.83 in 6.2 mi North 11.5 mph - N/A   Partly Cloudy
5:20 PM 91.4 °F - 51.8 °F 26% 29.83 in 6.2 mi North 9.2 mph - N/A   Partly Cloudy
5:50 PM 91.4 °F - 51.8 °F 26% 29.83 in 6.2 mi NNE 11.5 mph - N/A   Partly Cloudy
6:20 PM 89.6 °F - 51.8 °F 27% 29.83 in 6.2 mi North 11.5 mph - N/A   Partly Cloudy
6:50 PM 89.6 °F - 50.0 °F 26% 29.86 in 6.2 mi NNE 9.2 mph - N/A   Partly Cloudy
7:20 PM 87.8 °F - 50.0 °F 27% 29.86 in 6.2 mi NNE 9.2 mph - N/A   Partly Cloudy
7:50 PM 86.0 °F 86.1 °F 60.8 °F 43% 29.86 in 6.2 mi Calm Calm - N/A   Partly Cloudy
8:20 PM 86.0 °F - 51.8 °F 31% 29.89 in 6.2 mi NW 4.6 mph - N/A   Partly Cloudy
8:50 PM 84.2 °F 85.0 °F 62.6 °F 48% 29.89 in 6.2 mi NW 5.8 mph - N/A   Partly Cloudy
9:20 PM 84.2 °F 82.8 °F 53.6 °F 35% 29.89 in 6.2 mi West 4.6 mph - N/A   Partly Cloudy
9:50 PM 82.4 °F 81.4 °F 53.6 °F 37% 29.92 in 6.2 mi West 4.6 mph - N/A   Partly Cloudy
10:20 PM 82.4 °F 81.4 °F 53.6 °F 37% 29.92 in 6.2 mi West 4.6 mph - N/A   Partly Cloudy
10:50 PM 80.6 °F 80.3 °F 53.6 °F 39% 29.92 in 6.2 mi Calm Calm - N/A   Partly Cloudy
11:50 PM 80.6 °F 81.1 °F 59.0 °F 48% 29.92 in 6.2 mi Calm Calm - N/A   Partly Cloudy